Temperature
17 17 19 19 18 15 14 14 13 13 12 13 12 12 12 12 12 12 12 12 12 12 13 13 13 12 13 12 12 12 13 13 13 12 12 13 12 12 12 12 12 12 13 12
18 19 19 18 18 17 16 16 15 15 13 13 12 12 11 11 12 13 12 12 12 12 12 12 12 12 12 11 11 11 12 12 12 12 12 13 12 12 12 12 12 12 13 12
15 18 17 15 17 18 17 17 16 14 13 12 12 11 12 12 12 12 12 12 12 12 11 11 11 11 11 11 11 11 11 12 12 12 12 12 12 12 12 12 12 12 12 12
15 16 14 17 17 18 17 16 15 15 13 12 13 14 14 13 12 12 12 12 11 11 11 11 11 11 11 11 11 11 11 11 11 11 11 11 12 12 12 12 11 12 12 11
14 14 16 17 18 17 16 15 15 14 14 14 14 13 13 13 13 12 12 11 11 11 11 10 10 10 11 11 10 11 11 11 11 11 11 11 11 11 11 11 11 11 11 11
14 14 14 17 18 18 17 14 14 14 14 15 12 10 12 14 13 13 12 12 11 11 10 10 10 10 10 10 10 11 11 11 10 10 10 11 11 11 11 11 11 11 11 11
15 14 15 17 19 19 15 15 15 16 16 15 12 13 15 15 14 13 12 11 11 10 10 10 10 10 10 10 10 10 10 9 9 9 10 10 10 10 10 10 11 10 11 11
15 14 13 18 18 16 16 17 17 17 17 17 16 16 15 15 14 12 12 12 11 11 10 10 10 10 10 10 10 10 9 9 9 9 10 10 10 10 10 10 10 10 10 10
16 15 17 19 19 20 20 19 18 17 17 17 17 15 15 15 13 13 12 12 12 11 11 10 10 10 10 10 9 9 9 9 9 9 9 10 10 10 10 10 10 10 10 10
15 16 18 20 20 19 20 20 19 18 18 17 17 16 15 14 13 13 12 12 12 12 11 11 10 10 10 9 9 9 8 8 8 9 9 9 10 9 10 10 9 9 9 9
14 15 17 19 20 20 20 19 19 18 18 17 17 16 15 14 13 13 13 12 12 11 11 11 10 10 9 9 9 9 9 8 8 8 9 9 9 9 9 9 9 9 9 9
15 16 15 17 19 20 20 20 19 18 18 17 17 16 15 14 14 13 12 12 12 12 11 10 10 10 9 9 9 9 9 9 8 8 8 8 8 9 9 8 9 9 9 8
17 18 19 19 19 19 19 20 19 19 18 17 17 16 16 15 14 13 13 13 12 12 11 11 10 10 9 9 9 9 9 9 9 8 9 9 9 9 9 9 9 9 9 9
18 18 18 19 19 19 20 20 19 19 18 18 17 16 16 15 14 14 13 13 12 12 11 11 10 10 10 10 10 9 9 9 9 9 9 9 9 10 9 9 9 9 9 9
18 18 19 19 19 19 19 19 19 18 18 17 17 17 16 15 15 14 14 13 12 12 11 11 10 10 10 10 10 10 9 9 9 9 9 10 10 10 10 9 9 9 9 9
18 19 19 19 19 19 19 19 18 18 18 18 17 17 16 16 15 15 14 13 12 12 12 11 11 11 11 10 10 10 10 10 10 10 10 10 10 10 10 10 10 10 10 9
15 17 18 19 19 19 19 19 18 18 18 18 18 17 17 16 15 15 14 14 13 13 12 12 11 11 11 11 11 11 10 10 10 10 10 10 11 10 10 10 10 10 10 10
16 16 17 18 18 18 18 18 18 17 17 18 18 17 17 16 16 15 15 14 13 13 12 12 12 12 11 11 11 11 11 11 11 11 10 10 11 10 10 10 10 10 10 9
16 15 13 14 16 16 16 17 17 17 18 18 18 17 17 17 16 16 15 14 14 13 13 13 12 12 12 12 11 11 11 11 11 11 11 11 10 10 10 10 10 10 10 9
14 13 13 13 16 15 14 14 15 17 16 16 16 16 16 15 16 16 15 15 14 15 15 14 13 13 12 12 12 12 12 11 11 11 11 11 11 10 11 11 11 11 10 10
13 13 13 12 13 13 12 11 11 14 15 15 15 15 15 15 15 15 15 15 15 15 14 14 14 13 13 12 12 12 12 12 11 11 11 11 11 11 11 11 11 11 10 10
12 12 12 11 11 11 11 10 11 13 14 14 14 14 14 14 14 14 14 15 16 15 15 14 14 14 13 13 12 12 12 12 12 11 11 11 11 11 11 11 11 11 11 10
12 12 12 11 11 11 11 11 12 13 13 13 13 13 13 13 13 13 13 14 14 15 14 14 14 14 14 13 13 12 12 12 11 11 11 11 11 11 11 11 11 11 11 10
11 12 11 11 11 11 11 12 12 12 13 12 12 12 12 12 12 13 13 14 14 14 13 13 14 14 14 14 13 13 12 12 12 11 11 11 11 11 11 11 11 11 11 11
9 9 10 10 10 11 11 11 12 11 11 12 12 11 11 12 12 12 13 13 13 13 13 13 14 13 13 13 13 12 12 12 12 12 12 11 11 11 11 11 11 11 11 11
8 8 8 8 8 9 9 10 10 11 11 11 11 11 11 11 11 11 12 12 12 13 13 12 13 13 12 12 13 12 12 12 12 12 12 12 12 12 12 12 11 11 11 10
8 8 7 7 7 7 8 8 9 10 10 10 10 10 10 10 10 11 11 12 12 12 12 12 12 12 13 13 12 13 13 13 13 13 13 12 12 12 12 12 12 12 10 10
Wind_Speed
7 7 6 6 7 8 9 9 7 7 7 9 7 7 7 7 6 5 6 4 1 2 2 2 3 4 4 3 3 4 5 4 3 3 2 3 2 3 5 5 6 6 6 6
3 6 6 8 8 6 9 7 6 4 6 6 2 3 4 5 7 6 7 4 3 3 4 2 2 3 3 4 4 4 5 5 5 6 5 5 5 7 7 6 6 7 6 6
4 4 6 8 6 6 5 6 6 7 8 4 4 6 7 8 7 8 8 7 4 2 1 1 2 1 1 2 2 4 5 5 6 6 7 7 5 6 6 5 5 6 6 6
3 0 4 8 5 7 8 8 7 6 6 8 8 6 9 11 10 9 7 4 3 3 0 1 1 2 3 3 0 5 5 5 4 6 7 6 6 6 5 3 4 4 6 5
3 4 6 7 6 8 8 7 6 8 8 8 5 3 6 9 11 10 8 6 5 4 3 3 4 4 3 2 1 7 6 4 3 4 5 5 5 4 3 4 4 5 5 5
4 4 7 7 4 6 6 3 7 8 10 8 7 5 9 10 10 9 8 5 5 4 3 4 5 5 4 4 4 5 5 3 3 2 3 4 4 2 2 4 6 6 6 5
6 7 8 8 6 7 4 7 11 12 11 6 8 12 8 9 11 10 8 8 7 5 3 4 3 6 6 6 5 4 5 4 4 3 2 4 3 1 1 4 7 6 6 6
5 5 8 9 7 7 8 8 11 12 11 8 10 8 7 10 11 11 11 9 9 7 5 4 6 7 7 6 4 4 4 4 4 3 2 1 4 3 2 5 7 6 6 6
6 8 7 5 7 10 10 9 11 11 11 8 8 8 9 10 13 13 13 11 10 8 7 7 7 9 9 8 6 6 7 5 2 2 2 1 2 3 4 6 6 5 5 5
6 8 7 8 8 8 9 11 12 12 11 10 11 12 11 11 11 10 9 9 7 7 8 8 8 9 9 8 7 7 7 5 1 1 1 2 3 3 6 6 6 6 5 4
8 10 12 12 8 6 5 8 9 11 11 12 15 14 15 13 12 10 9 8 8 9 9 9 10 10 9 8 8 7 6 5 5 3 3 4 4 4 4 3 5 6 5 5
12 12 9 10 10 9 6 9 13 13 11 11 15 16 16 14 13 11 11 10 10 10 9 9 9 10 9 9 9 8 7 6 5 3 2 2 3 3 5 4 5 6 5 4
13 11 9 11 11 12 9 11 13 15 14 12 13 13 17 14 14 15 14 13 13 13 12 11 11 10 10 9 9 9 8 7 6 5 4 4 3 4 3 1 3 4 4 1
14 11 9 10 11 12 9 10 13 17 15 14 13 13 16 16 14 14 15 15 14 13 12 12 12 12 12 11 10 10 9 9 8 7 6 6 6 6 5 5 3 3 3 5
15 15 15 14 11 11 8 6 7 13 14 11 13 14 16 18 18 17 15 14 14 14 14 14 15 14 13 12 11 10 8 7 7 7 7 8 7 6 6 6 6 4 2 4
15 14 15 12 10 9 6 5 7 10 12 13 14 16 19 20 19 17 15 16 15 15 15 15 15 15 15 14 13 10 9 11 9 6 6 6 6 6 7 7 6 5 6 6
14 16 17 12 13 10 7 7 13 16 18 19 18 18 18 18 18 17 17 18 18 17 16 17 16 14 13 15 14 11 10 9 10 7 7 7 6 6 7 8 7 6 7 9
16 15 12 10 8 9 9 9 9 12 17 17 17 17 18 19 21 21 20 17 15 14 15 17 17 14 15 15 13 10 9 8 7 8 8 7 6 7 8 9 8 7 6 8
19 17 14 8 10 11 7 5 3 4 6 10 12 15 20 23 23 21 20 18 18 17 18 17 20 18 15 17 17 12 10 10 8 7 8 8 8 8 9 8 8 7 7 6
4 3 7 8 12 15 17 18 10 3 2 4 5 8 11 13 15 17 20 21 21 21 21 20 19 17 15 17 19 14 12 13 11 10 10 9 9 9 10 11 10 9 7 8
8 6 4 4 5 7 10 18 19 9 6 3 2 6 8 10 14 18 18 19 21 20 19 20 18 16 15 16 17 14 12 12 11 10 10 11 10 10 10 9 9 8 8 8
9 8 7 5 5 3 1 9 18 16 10 5 4 5 6 7 10 16 21 20 19 21 18 15 16 20 20 20 15 13 12 11 11 10 10 11 11 11 11 11 10 9 8 8
4 5 7 7 8 9 10 13 16 14 12 9 8 8 8 8 8 10 15 18 17 19 19 17 20 25 26 19 15 12 12 13 12 11 11 11 11 11 11 12 12 10 9 10
7 6 7 9 10 10 11 13 14 13 13 12 10 9 8 7 7 11 14 18 20 20 19 19 20 23 22 17 16 15 14 15 14 12 11 10 10 10 10 10 10 9 10 10
12 11 11 12 13 12 13 14 11 10 11 10 10 9 8 8 7 8 10 12 16 20 20 22 23 22 19 17 15 13 12 13 14 13 11 9 9 9 9 10 11 12 12 11
14 14 13 12 10 11 13 12 8 8 8 7 8 8 6 5 5 7 8 9 13 16 15 13 15 18 18 18 17 17 18 18 15 14 13 11 10 9 9 11 12 13 11 10
9 9 7 10 13 12 12 12 9 8 8 7 7 8 6 4 3 5 7 9 11 12 14 14 13 17 18 16 16 17 17 17 16 15 13 12 9 9 11 13 12 10 8 7
Wind_Direction
219 246 263 269 265 197 187 190 189 238 241 265 276 296 286 249 234 251 263 260 332 38 339 68 109 105 87 45 37 56 72 74 100 159 203 190 162 127 123 103 85 74 63 48
254 265 286 287 273 237 200 196 217 270 282 249 243 263 247 214 207 207 248 229 174 59 349 349 88 103 67 47 44 62 86 77 65 74 70 80 116 121 120 115 97 83 71 52
252 256 319 292 241 182 178 181 177 233 251 222 251 241 234 236 255 244 231 229 228 177 209 334 19 38 46 3 40 87 98 85 83 91 67 67 86 103 103 106 113 104 89 62
197 197 233 235 222 193 188 199 200 221 216 217 236 235 236 220 223 233 219 196 154 128 172 287 280 295 326 328 319 125 129 123 111 92 94 95 88 83 79 77 103 104 86 65
180 198 260 278 239 176 176 226 204 211 233 236 209 198 256 220 206 204 198 177 171 171 191 241 242 233 215 287 151 125 127 123 128 124 119 117 110 98 82 81 99 104 96 66
180 217 239 246 214 140 120 250 201 199 231 233 160 188 244 214 198 193 181 169 170 179 211 248 225 188 157 143 136 131 133 153 132 152 169 142 140 145 65 91 107 103 91 67
220 240 256 239 178 132 171 227 199 208 228 216 192 214 226 184 178 173 175 188 198 204 231 261 174 143 133 137 156 165 165 154 124 93 172 189 186 212 96 103 116 116 102 73
214 242 271 217 183 201 207 189 195 206 220 212 216 210 181 163 162 166 179 190 201 201 208 191 146 136 143 153 158 157 143 140 113 64 11 195 181 187 152 125 125 127 112 87
222 226 249 234 232 234 182 178 196 200 212 191 172 169 165 164 168 177 183 192 195 195 191 185 159 152 161 174 159 139 118 114 105 83 357 359 148 145 136 135 130 127 119 116
286 283 276 267 251 235 200 195 192 192 195 171 178 177 176 175 182 187 193 198 187 181 174 173 173 170 168 168 164 149 149 147 234 228 16 67 73 99 134 139 136 141 146 145
273 280 289 288 264 257 240 223 194 194 192 184 177 181 182 184 190 192 188 198 178 170 170 175 174 167 166 166 154 153 166 174 205 190 132 95 72 51 91 122 161 159 171 164
264 257 261 267 270 271 242 212 205 194 196 186 177 180 182 185 187 183 181 176 166 166 170 176 172 169 174 175 166 164 172 184 200 202 191 159 137 87 57 72 75 79 93 134
250 244 229 250 262 261 250 229 211 196 191 184 185 173 179 179 181 182 178 173 172 172 175 172 170 178 186 184 176 177 182 187 194 203 213 204 177 171 159 99 52 69 86 118
248 258 275 262 255 251 251 250 213 200 194 183 182 177 177 177 178 178 180 181 177 173 174 173 174 190 192 184 183 187 195 193 190 199 210 215 206 194 186 186 203 242 225 236
251 245 248 259 269 266 270 272 216 198 190 186 181 177 178 178 181 184 182 178 176 177 180 181 184 194 192 187 190 192 195 203 200 201 209 218 215 194 193 195 204 207 199 244
267 256 251 240 233 237 218 176 188 209 200 198 191 186 184 183 184 184 180 177 179 186 187 189 192 195 193 190 194 197 202 205 192 204 208 210 205 187 193 194 200 204 201 205
301 270 260 241 217 220 225 207 198 209 213 209 198 192 185 184 183 187 188 186 187 188 186 189 198 196 191 195 197 198 204 206 191 191 199 196 183 177 172 166 182 198 205 207
24 355 303 254 225 228 227 239 238 238 232 212 198 189 184 185 189 193 193 189 187 188 191 192 196 196 193 199 200 199 205 209 203 196 200 199 183 172 173 177 183 187 206 215
30 20 349 346 45 24 349 283 206 197 216 201 191 189 192 194 197 195 189 187 189 193 203 197 193 192 191 196 198 203 205 209 206 202 191 192 192 187 189 192 193 195 196 200
19 14 313 341 30 27 353 336 319 55 41 106 161 191 195 205 208 199 193 196 199 201 200 198 195 194 193 193 191 196 197 201 204 210 203 192 192 197 199 200 201 200 194 199
309 288 310 349 24 46 8 327 305 308 303 319 222 209 208 203 203 208 201 207 211 207 201 196 194 197 196 195 191 198 195 193 197 199 201 203 198 198 207 212 210 207 200 202
318 304 305 322 342 343 308 279 284 286 270 259 271 268 253 233 215 212 209 212 211 205 204 200 198 197 195 195 196 196 196 195 195 198 202 204 204 203 208 215 217 216 204 198
4 348 328 303 279 261 250 256 269 281 283 272 253 246 241 238 223 212 215 219 214 201 204 209 201 194 192 193 194 192 196 204 207 199 199 201 202 206 212 218 218 216 202 198
287 283 297 303 291 273 266 267 273 278 280 281 268 251 237 242 238 223 220 218 213 212 207 204 196 191 189 194 195 194 206 211 211 208 203 199 196 199 209 215 212 201 196 192
303 285 282 290 291 284 275 269 264 260 270 277 269 259 242 227 230 240 232 227 215 205 202 191 175 178 197 198 197 196 209 220 215 212 206 203 204 200 198 197 197 191 189 190
317 304 299 294 291 298 299 286 266 271 278 275 273 267 250 237 249 266 256 219 191 189 188 190 192 190 197 193 188 195 210 219 213 208 207 208 208 198 189 187 187 186 185 191
290 290 303 314 303 298 295 287 282 278 274 270 274 272 252 237 246 254 251 231 201 198 210 211 201 194 186 184 194 205 207 208 205 202 205 205 198 191 187 185 183 178 175 180
Height
1508 1504 1501 1501 1502 1506 1511 1510 1517 1511 1509 1502 1499 1497 1493 1490 1489 1490 1490 1489 1488 1487 1486 1488 1490 1492 1493 1493 1495 1497 1498 1498 1498 1498 1499 1499 1499 1498 1499 1498 1497 1496 1495 1493
1504 1499 1498 1499 1496 1497 1499 1500 1501 1500 1502 1495 1494 1493 1491 1488 1486 1486 1488 1487 1486 1486 1487 1488 1489 1491 1493 1492 1493 1495 1495 1496 1496 1496 1497 1499 1499 1498 1499 1498 1497 1497 1497 1495
1511 1500 1502 1508 1491 1488 1491 1491 1494 1498 1496 1491 1491 1490 1487 1486 1484 1482 1482 1485 1485 1485 1487 1488 1488 1491 1494 1493 1492 1494 1494 1495 1495 1495 1496 1498 1499 1498 1499 1499 1499 1499 1498 1497
1509 1509 1521 1495 1480 1480 1485 1486 1485 1485 1487 1485 1484 1484 1482 1482 1482 1482 1482 1483 1483 1483 1485 1487 1487 1488 1490 1491 1491 1492 1494 1495 1496 1495 1494 1496 1497 1498 1499 1500 1500 1499 1499 1498
1511 1512 1501 1487 1477 1477 1482 1485 1481 1482 1481 1479 1479 1481 1479 1477 1477 1478 1479 1480 1480 1481 1483 1484 1483 1483 1486 1488 1490 1491 1492 1494 1494 1494 1494 1495 1496 1497 1499 1499 1499 1500 1500 1500
1503 1510 1507 1485 1471 1470 1476 1487 1478 1477 1476 1475 1478 1482 1475 1472 1473 1475 1476 1478 1479 1480 1481 1482 1482 1483 1484 1486 1489 1490 1492 1493 1494 1494 1494 1494 1495 1497 1498 1499 1499 1500 1501 1501
1496 1500 1490 1473 1468 1471 1486 1481 1470 1470 1470 1471 1473 1470 1468 1468 1470 1473 1476 1478 1479 1479 1479 1479 1480 1482 1483 1484 1487 1489 1491 1493 1494 1494 1494 1494 1495 1497 1498 1499 1499 1500 1501 1501
1490 1494 1495 1464 1466 1470 1466 1460 1461 1463 1464 1465 1464 1463 1463 1465 1467 1471 1474 1476 1478 1478 1479 1479 1480 1481 1482 1484 1486 1487 1489 1491 1493 1494 1494 1494 1495 1496 1497 1498 1499 1500 1501 1501
1478 1478 1465 1461 1460 1455 1451 1452 1455 1456 1458 1459 1459 1459 1460 1462 1464 1468 1471 1473 1475 1477 1478 1479 1479 1480 1482 1483 1485 1486 1487 1489 1491 1492 1492 1493 1494 1496 1496 1497 1499 1500 1501 1502
1471 1463 1459 1456 1453 1451 1447 1446 1447 1450 1451 1452 1453 1455 1457 1460 1462 1465 1468 1471 1473 1475 1476 1477 1477 1478 1480 1481 1482 1483 1484 1486 1488 1490 1491 1492 1494 1495 1496 1497 1499 1501 1501 1501
1465 1460 1455 1452 1449 1445 1442 1443 1443 1445 1446 1446 1448 1450 1452 1455 1459 1462 1465 1468 1470 1471 1472 1474 1475 1476 1478 1478 1479 1480 1480 1482 1486 1488 1490 1492 1494 1495 1496 1497 1499 1500 1500 1501
1457 1451 1450 1447 1444 1441 1439 1439 1438 1439 1441 1441 1443 1444 1447 1450 1454 1458 1461 1463 1466 1468 1470 1471 1473 1474 1476 1476 1477 1479 1480 1482 1484 1486 1488 1490 1493 1494 1496 1497 1498 1499 1499 1500
1444 1442 1441 1439 1438 1436 1434 1433 1433 1433 1434 1436 1438 1440 1442 1445 1449 1453 1456 1458 1461 1463 1466 1468 1470 1472 1474 1475 1477 1478 1480 1481 1483 1485 1487 1489 1491 1493 1495 1497 1498 1499 1499 1500
1437 1436 1434 1432 1429 1428 1427 1427 1425 1426 1428 1429 1432 1435 1437 1440 1443 1447 1450 1452 1455 1458 1461 1463 1466 1469 1471 1473 1475 1477 1479 1481 1482 1484 1487 1489 1491 1492 1494 1496 1497 1498 1499 1500
1427 1426 1425 1423 1422 1420 1420 1419 1418 1418 1421 1423 1425 1428 1432 1434 1437 1440 1444 1448 1451 1454 1456 1459 1461 1465 1468 1470 1472 1475 1477 1479 1481 1483 1485 1487 1489 1491 1492 1494 1496 1497 1498 1499
1418 1416 1414 1413 1413 1413 1412 1410 1413 1414 1416 1419 1420 1422 1424 1428 1431 1434 1438 1441 1444 1447 1450 1454 1456 1460 1463 1466 1468 1471 1473 1476 1478 1480 1482 1483 1485 1487 1489 1490 1493 1494 1494 1496
1410 1405 1404 1402 1403 1405 1405 1405 1406 1408 1409 1410 1412 1415 1418 1421 1425 1429 1431 1433 1436 1440 1444 1448 1452 1455 1458 1461 1464 1466 1469 1471 1474 1476 1479 1480 1482 1483 1484 1486 1489 1490 1490 1492
1403 1400 1400 1398 1397 1399 1400 1401 1400 1402 1403 1403 1405 1408 1410 1414 1416 1419 1423 1427 1431 1435 1439 1441 1446 1449 1452 1456 1458 1461 1464 1467 1469 1471 1474 1476 1478 1479 1481 1483 1484 1485 1486 1487
1404 1404 1407 1400 1393 1393 1397 1398 1395 1395 1395 1396 1398 1400 1402 1405 1408 1410 1415 1420 1423 1426 1430 1434 1438 1443 1446 1450 1453 1456 1459 1462 1464 1466 1468 1471 1474 1476 1477 1478 1479 1480 1481 1482
1410 1407 1409 1400 1394 1396 1395 1397 1397 1393 1394 1392 1393 1395 1397 1399 1402 1404 1407 1409 1411 1413 1419 1424 1430 1435 1439 1443 1446 1449 1452 1455 1458 1460 1462 1465 1467 1469 1471 1472 1473 1475 1476 1477
1412 1409 1405 1401 1400 1398 1399 1403 1402 1396 1395 1393 1391 1390 1390 1391 1395 1397 1398 1401 1405 1409 1413 1416 1420 1425 1431 1435 1439 1442 1445 1447 1450 1453 1455 1458 1460 1463 1465 1466 1468 1469 1470 1471
1412 1408 1403 1399 1399 1397 1396 1400 1399 1397 1395 1390 1387 1385 1384 1383 1385 1387 1387 1391 1396 1402 1404 1406 1411 1415 1421 1426 1430 1434 1437 1440 1443 1446 1448 1450 1453 1456 1458 1460 1461 1463 1463 1465
1410 1408 1404 1398 1396 1394 1392 1391 1390 1388 1386 1383 1379 1376 1374 1374 1375 1376 1377 1380 1385 1389 1393 1396 1400 1405 1410 1416 1421 1425 1429 1432 1435 1438 1441 1443 1445 1448 1450 1452 1453 1455 1457 1458
1407 1404 1400 1396 1392 1390 1388 1386 1383 1379 1376 1374 1369 1366 1364 1364 1365 1367 1368 1369 1372 1376 1379 1383 1390 1395 1401 1406 1410 1416 1421 1423 1426 1430 1433 1436 1437 1440 1443 1444 1446 1447 1449 1451
1403 1399 1395 1390 1384 1380 1377 1375 1372 1369 1366 1362 1359 1357 1355 1355 1355 1356 1357 1356 1358 1361 1365 1371 1377 1385 1392 1396 1400 1406 1412 1414 1417 1421 1424 1427 1430 1431 1435 1437 1439 1440 1441 1443
1396 1392 1387 1383 1377 1372 1368 1364 1360 1357 1355 1352 1351 1350 1348 1347 1347 1349 1349 1348 1349 1351 1355 1362 1367 1373 1380 1385 1391 1397 1402 1405 1408 1412 1415 1418 1422 1424 1427 1429 1431 1432 1434 1436
1385 1385 1380 1374 1369 1364 1359 1355 1353 1351 1348 1346 1344 1343 1342 1341 1340 1341 1341 1340 1341 1344 1348 1353 1358 1363 1370 1376 1382 1387 1391 1394 1398 1403 1407 1410 1413 1417 1420 1422 1424 1425 1428 1431